SL-8 R/B

Satellite information

Favourite Embed

Satellite Type and Status

ROCKET BODYIN ORBIT

Key statistics

Satellite SL-8 R/B at a glance.

Uptime

17783

Days in orbit

Revolutions

≈ 13.8

Per day

Orbit

LEO

Low Earth Orbit

Inclination

82.9

Latest

Satellite identification and parameters

Extended collection of information and parameters for SL-8 R/B.

Object identification

Identified? True

Debris? False

Object name: SL-8 R/B

International designator: 1976-108B

Object number (NORAD): 9510

Object ID (CCSDS): 9510

Country: COMMONWEALTH OF INDEPENDENT STATES (CIS)

Current information (Y/N): Y

RCS size: LARGE

Orbital parameters

Period: 104.511 minutes

Inclination: 82.9376 deg

SMA: 7349.669 km

Apoapsis: 990.024 km

Periapsis: 953.044 km

RAAN: 354.6196 deg

Eccentricy: 0.0025157

Argument of periapsis: 219.9106 deg

Mean anomaly: 140.0203 deg

Mean motion: 13.7784731 rev/day

Mean motion (dot): 0.0000013 rev/day2

B* drag term: 0.0001147 1/REarth

Two-line elements (TLE)

Creation date: July 6, 2025, 10:26 p.m.

Reference frame: TEME

Reference center: EARTH

Epoch: July 6, 2025, 8:50 p.m. UTC

TLE line 0: 0 SL-8 R/B

TLE line 1: 1 9510U 76108B 25187.86869515 .00000130 00000-0 11470-3 0 9998

TLE line 2: 2 9510 82.9376 354.6196 0025157 219.9106 140.0203 13.77847310446795

Live tracking on map

Real-time ground track for satellite SL-8 R/B.

In-orbit conjunctions

A list of the most updated potential collisions computed for object SL-8 R/B.

Target Orbit TCA Probability of collision Miss distance Type
THORAD AGENA D DEB SSO 2025-05-31 13:54:48 0.0001531208 322.0 (m) DEBRIS

Associated space launch

Navigation satellite providing location information for the Tsiklon-B navigation system

SL-8 R/B was lifted into orbit during the mission ‘Kosmos-3M | Parus 6’, on board a Kosmos-3M space rocket.

The launch took place on Oct. 29, 1976, 12:39 p.m. from 132/2.

For more information about the launch, click the button.

Launch to space Kosmos-3M | Parus 6
Kosmos-3M | Parus 6

Agency: N/A

Status: Launch Successful

Launch date: Oct. 29, 1976, 12:39 p.m. UTC

Rocket: Kosmos-3M

Launch pad: 132/2

Location: Plesetsk Cosmodrome, Russian Federation

...

Latest news about this satellite

There are no fresh news available about this satellite. Check back as we update our databases every day.


Newsletter sign-up

Weekly statistics, charts and insights to help you stay on top of the space industry.